Flag for Australia Weather past 2 weeks in Mackay, Queensland, Australia

Now
78 °F

Warm.


Feels Like: 79 °F
Forecast: 69 / 78 °F
Wind: 12 mph from Southeast

Location: Mackay Mo

Current Time: Oct 22, 2014 at 11:52:08 AM

Latest Report: Oct 22, 2014 at 10:00 AM


Visibility: N/A

Pressure: 30.17 "Hg

Humidity: 56%

Dew point: 61 °F

Location of MackayLocation

Historic Weather in Mackay — Graph

°F

Mackay temperature yesterday

Maximum temperature yesterday: 78 °F (at 10:00 AM)
Minimum temperature yesterday: 69 °F (at 6:00 AM)
Average temperature yesterday: 73 °F

Past Weeks' High & Low Weather Summary

 TemperatureHumidityPressure
High85 °F (Oct 14, 12:00 PM)97% (Oct 8, 1:00 AM)30.20 "Hg (Oct 8, 1:00 AM)
Low57 °F (Oct 16, 6:00 AM)18% (Oct 15, 9:00 AM)29.80 "Hg (Oct 14, 3:00 PM)
Average73 °F68%30.03 "Hg
* Reported Oct 7 10:00 AM — Oct 22 10:00 AM, Mackay, Weather by CustomWeather, © 2014

Note: Actual official high and low records may vary slightly from our data, if they occured in-between our weather recording intervals... More about our weather records

Advertising

Mackay weather history for previous 24 hours

 ConditionsComfort  
Time TempWeatherWind HumidityBarometerVisibility
10:00 AM
Oct 22
78 °FWarm.12 mph56%30.17 "HgN/A
9:00 AM77 °FScattered clouds.10 mph54%30.17 "Hg12 mi
7:00 AM74 °FMild.12 mph60%30.16 "HgN/A
6:00 AM72 °FMild.13 mph65%30.14 "HgN/A
4:00 AM71 °FMild.13 mph68%30.12 "HgN/A
3:00 AM71 °FMild.15 mph68%30.12 "HgN/A
1:00 AM71 °FMild.14 mph69%30.16 "HgN/A
12:00 AM71 °FPassing clouds.13 mph68%30.18 "HgN/A
10:00 PM
Oct 21
72 °FMild.15 mph69%30.19 "HgN/A
9:00 PM72 °FMild.15 mph71%30.19 "HgN/A
7:00 PM72 °FMild.15 mph72%30.16 "HgN/A
6:00 PM73 °FPassing clouds.15 mph70%30.15 "HgN/A
4:00 PM75 °FMild.13 mph64%30.12 "HgN/A
3:00 PM77 °FSprinkles. Partly sunny.13 mph59%30.12 "Hg9 mi
1:00 PM71 °FMild.14 mph78%30.16 "HgN/A
12:00 PM77 °FOvercast.14 mph58%30.18 "HgN/A
Weather by CustomWeather, © 2014

See weather overviewHow to use our weather pages